Weather History for Marathon, FL

Change the Weather History Date:

Thursday, March 7, 2013

  Actual Average Record
Temperature  
Mean Temperature 16 °C 23 °C  
Max Temperature 19 °C 26 °C 30 °C (2003)
Min Temperature 13 °C 20 °C 12 °C (2013)
Degree Days  
Heating Degree Days 4 0  
Month to date heating degree days 19 0  
Since 1 July heating degree days 32 75  
Cooling Degree Days 0 8  
Month to date cooling degree days 6 56  
Year to date cooling degree days 601 438  
Growing Degree Days 10 (Base 50)    
Moisture  
Dew Point 6 °C    
Average Humidity 54    
Maximum Humidity 67    
Minimum Humidity 40    
Precipitation  
Precipitation 0.00 mm 2.03 mm 1.12 mm (2002)
Month to date precipitation 0.15 0.53  
Year to date precipitation 2.53 4.35  
Snow  
Snow 0.00 cm - - ()
Month to date snowfall 0.0  
Since 1 July snowfall 0.0  
Snow Depth 0.00 cm    
Sea Level Pressure  
Sea Level Pressure 1022 hPa    
Wind  
Wind Speed 15 km/h (NNW)    
Max Wind Speed 29 km/h    
Max Gust Speed 42 km/h    
Visibility 16 kilometers    
Events      
T = Trace of Precipitation, MM = Missing Value Source: NWS Daily Summary

Daily Weather History Graph

Daily Weather History Graph

Search for Another Location

Airport:

Trip Planner

Search our weather history database for the weather conditions in past years. The results will help you decide how hot, cold, wet, or windy it might be!

Date:

Astronomy

Mar. 07, 2013 Rise Set
Actual Time 6:40 AM EST 6:29 PM EST
Civil Twilight 6:18 AM EST 6:52 PM EST
Nautical Twilight 5:51 AM EST 7:18 PM EST
Astronomical Twilight 5:25 AM EST 7:45 PM EST
Moon 3:17 AM EST (3/7) 2:36 PM EST (3/7)
Length of Visible Light 12h 34m
Length of Day
11h 48m
Waning Crescent, 20% of the Moon is Illuminated
Mar 7
Waning Crescent
Mar 11
New
Mar 19
First Quarter
Mar 27
Full
Apr 3
Last Quarter

Hourly Weather History & Observations

Time (EST) Temp. Dew Point Humidity Pressure Visibility Wind Dir Wind Speed Gust Speed Precip Events Conditions
12:53 AM 16.7 °C 7.8 °C 56% 1020.1 hPa 16.1 km NNW 24.1 km/h / 6.7 m/s 37.0 km/h / 10.3 m/s N/A   Clear
1:53 AM 16.7 °C 8.3 °C 58% 1019.6 hPa 16.1 km NNW 20.4 km/h / 5.7 m/s 35.2 km/h / 9.8 m/s N/A   Partly Cloudy
2:53 AM 16.1 °C 9.4 °C 64% 1019.2 hPa 16.1 km North 16.7 km/h / 4.6 m/s 33.3 km/h / 9.3 m/s N/A   Mostly Cloudy
3:53 AM 13.9 °C 7.8 °C 67% 1019.3 hPa 16.1 km North 24.1 km/h / 6.7 m/s 38.9 km/h / 10.8 m/s N/A   Clear
4:53 AM 13.9 °C 3.9 °C 51% 1019.7 hPa 16.1 km NNE 22.2 km/h / 6.2 m/s 35.2 km/h / 9.8 m/s N/A   Clear
5:53 AM 13.3 °C 3.3 °C 51% 1020.5 hPa 16.1 km North 16.7 km/h / 4.6 m/s 35.2 km/h / 9.8 m/s N/A   Clear
6:53 AM 12.8 °C 1.7 °C 47% 1021.6 hPa 16.1 km North 13.0 km/h / 3.6 m/s 31.5 km/h / 8.7 m/s N/A   Clear
7:53 AM 13.9 °C 2.8 °C 47% 1022.0 hPa 16.1 km North 14.8 km/h / 4.1 m/s 25.9 km/h / 7.2 m/s N/A   Clear
8:53 AM 15.0 °C 3.9 °C 48% 1022.4 hPa 16.1 km North 11.1 km/h / 3.1 m/s - N/A   Clear
9:53 AM 16.1 °C 4.4 °C 46% 1022.8 hPa 16.1 km North 14.8 km/h / 4.1 m/s - N/A   Clear
10:53 AM 17.2 °C 3.9 °C 41% 1023.3 hPa 16.1 km North 13.0 km/h / 3.6 m/s - N/A   Clear
11:53 AM 17.2 °C 3.9 °C 41% 1023.3 hPa 16.1 km NNW 13.0 km/h / 3.6 m/s - N/A   Clear
12:53 PM 17.8 °C 3.9 °C 40% 1021.8 hPa 16.1 km Variable 9.3 km/h / 2.6 m/s - N/A   Clear
1:53 PM 17.8 °C 4.4 °C 41% 1021.1 hPa 16.1 km NNW 11.1 km/h / 3.1 m/s - N/A   Clear
2:53 PM 18.3 °C 4.4 °C 40% 1021.2 hPa 16.1 km NW 14.8 km/h / 4.1 m/s - N/A   Clear
3:53 PM 17.8 °C 4.4 °C 41% 1021.0 hPa 16.1 km WNW 14.8 km/h / 4.1 m/s - N/A   Clear
4:53 PM 17.2 °C 6.1 °C 48% 1021.1 hPa 16.1 km WNW 16.7 km/h / 4.6 m/s - N/A   Clear
5:53 PM 16.7 °C 6.7 °C 52% 1021.2 hPa 16.1 km NW 18.5 km/h / 5.1 m/s - N/A   Clear
6:53 PM 15.6 °C 6.7 °C 55% 1021.4 hPa 16.1 km NW 9.3 km/h / 2.6 m/s - N/A   Clear
7:53 PM 16.1 °C 7.8 °C 58% 1021.9 hPa 16.1 km NW 13.0 km/h / 3.6 m/s - N/A   Clear
8:53 PM 16.1 °C 8.3 °C 60% 1022.3 hPa 16.1 km NNW 13.0 km/h / 3.6 m/s - N/A   Clear
9:53 PM 16.1 °C 8.9 °C 62% 1022.4 hPa 16.1 km Variable 9.3 km/h / 2.6 m/s - N/A   Clear
10:53 PM 16.1 °C 9.4 °C 64% 1022.5 hPa 16.1 km Variable 5.6 km/h / 1.5 m/s - N/A   Clear
11:53 PM 16.1 °C 9.4 °C 64% 1022.0 hPa 16.1 km North 11.1 km/h / 3.1 m/s - N/A   Clear